Flag for United Kingdom Weather past 2 weeks in Birmingham, England, United Kingdom

Now
48 °F

Broken clouds.


Feels Like: 43 °F
Forecast: 35 / 58 °F
Wind: 13 mph from Northeast

Location: Birmingham / Airport

Current Time: Apr 19, 2015 at 2:32:32 PM

Latest Report: Apr 19, 2015 at 1:50 PM


Visibility: N/A

Pressure: 30.27 "Hg

Humidity: 66%

Dew point: 37 °F

Location of BirminghamLocation

Historic Weather in Birmingham — Graph

°F

Birmingham temperature yesterday

Maximum temperature yesterday: 57 °F (at 2:20 PM)
Minimum temperature yesterday: 39 °F (at 3:20 AM)
Average temperature yesterday: 47 °F

Past Weeks' High & Low Weather Summary

 TemperatureHumidityPressure
High66 °F (Apr 10, 3:20 PM)100% (Apr 5, 7:50 AM)30.63 "Hg (Apr 5, 7:50 AM)
Low30 °F (Apr 13, 6:50 AM)26% (Apr 15, 1:20 PM)29.77 "Hg (Apr 11, 5:50 AM)
Average50 °F71%30.26 "Hg
* Reported Apr 4 1:20 PM — Apr 19 1:20 PM, Birmingham, Weather by CustomWeather, © 2015

Note: Actual official high and low records may vary slightly from our data, if they occured in-between our weather recording intervals... More about our weather records

Advertising

Birmingham weather history for previous 24 hours

 ConditionsComfort  
Time TempWeatherWind HumidityBarometerVisibility
1:20 PM
Sun, Apr 19
48 °FMostly cloudy.12 mph62%30.27 "HgN/A
12:50 PM48 °FMostly cloudy.13 mph62%30.27 "HgN/A
12:20 PM48 °FMostly cloudy.10 mph62%30.27 "HgN/A
11:50 AM48 °FPartly sunny.12 mph62%30.27 "HgN/A
11:20 AM48 °FBroken clouds.10 mph62%30.27 "HgN/A
10:50 AM46 °FPartly sunny.10 mph62%30.30 "HgN/A
10:20 AM46 °FPartly sunny.9 mph62%30.30 "HgN/A
9:50 AM46 °FPartly sunny.8 mph62%30.30 "HgN/A
9:20 AM45 °FPartly sunny.8 mph66%30.30 "HgN/A
8:50 AM45 °FPartly sunny.6 mph66%30.30 "HgN/A
8:20 AM43 °FPartly sunny.6 mph66%30.33 "HgN/A
7:50 AM41 °FPartly sunny.6 mph70%30.33 "HgN/A
7:20 AM41 °FPartly sunny.7 mph70%30.33 "HgN/A
6:50 AM41 °FPassing clouds.8 mph70%30.33 "HgN/A
6:20 AM41 °FPassing clouds.7 mph70%30.33 "HgN/A
5:50 AM41 °FPassing clouds.8 mph70%30.33 "HgN/A
5:20 AM41 °FPassing clouds.7 mph70%30.33 "HgN/A
4:50 AM41 °FPassing clouds.9 mph70%30.33 "HgN/A
4:20 AM41 °FOvercast.10 mph70%30.33 "HgN/A
3:50 AM39 °FOvercast.10 mph75%30.33 "HgN/A
3:20 AM39 °FPassing clouds.8 mph75%30.36 "HgN/A
2:50 AM39 °FOvercast.8 mph75%30.36 "HgN/A
2:20 AM39 °FOvercast.9 mph75%30.36 "HgN/A
1:50 AM39 °FOvercast.7 mph81%30.39 "HgN/A
1:20 AM37 °FPassing clouds.3 mph87%30.39 "HgN/A
12:50 AM39 °FClear.3 mph81%30.39 "Hg10 mi
12:20 AM39 °FClear.8 mph81%30.39 "Hg10 mi
11:50 PM
Sat, Apr 18
41 °FClear.8 mph81%30.39 "Hg10 mi
11:20 PM41 °FClear.8 mph81%30.39 "Hg10 mi
10:50 PM43 °FClear.9 mph76%30.39 "Hg10 mi
10:20 PM43 °FClear.10 mph76%30.39 "Hg10 mi
9:50 PM45 °FClear.10 mph71%30.39 "Hg10 mi
9:20 PM46 °FClear.9 mph71%30.39 "Hg10 mi
8:50 PM46 °FSunny.10 mph66%30.36 "Hg10 mi
8:20 PM48 °FSunny.13 mph62%30.36 "Hg10 mi
7:50 PM50 °FPassing clouds.12 mph58%30.36 "HgN/A
7:20 PM52 °FPassing clouds.13 mph54%30.36 "HgN/A
6:50 PM54 °FSunny.14 mph51%30.36 "Hg10 mi
6:20 PM55 °FPassing clouds.13 mph47%30.33 "HgN/A
5:50 PM55 °FSunny.15 mph44%30.33 "Hg10 mi
5:20 PM55 °FSunny.15 mph44%30.36 "Hg10 mi
4:50 PM57 °FSunny.14 mph44%30.36 "Hg10 mi
4:20 PM57 °FSunny.16 mph41%30.36 "Hg10 mi
3:50 PM57 °FSunny.16 mph41%30.36 "Hg10 mi
3:20 PM57 °FPassing clouds.15 mph41%30.36 "HgN/A
2:50 PM57 °FPassing clouds.15 mph41%30.36 "HgN/A
2:20 PM57 °FPassing clouds.14 mph44%30.39 "HgN/A
Weather by CustomWeather, © 2015

See weather overviewHow to use our weather pages